Location: Calberlah
(52.4230°N, 10.6240°E)
Time: 10:36:17
(UTC+00:00)

COSMOS 2406 - Pass Details

Date: 19 May 2025
Orbit: 845 x 859 km, 71.0° (Epoch: 23 June)

Event Time Altitude Azimuth Distance (km) Brightness Sun altitude
Exits shadow 21:59:09 23° 182° (S) 1,746 4.3 -15.8°
Maximum altitude 22:02:37 55° 113° (ESE) 1,015 3.4 -16.0°
Drops below altitude 10° 22:08:11 10° 37° (NE) 2,491 6.1 -16.2°
Sets 22:10:41 0° 33° (NNE) 3,434 7.0 -16.3°
